[[{"header":{"parameterUnit":"m.s-1","parameterCategory":1,"la1":30.2991,"la2":30.254,"lo1":-89.0895,"lo2":-89.0444,"dy":0.0017,"dx":0.0017,"nx":28,"ny":28,"refTime":"2025-01-27T09:00:00:Z","depth":0,"parameterNumber":2,"parameterNumberName":"U-component_of_WINDS"},"data":[0,0,0,0,0,0,0,0,0,0,0,0,0,0,0,0,0,0,0,0,0,0,0,0,0,0,0,0,0,0,0,0,0,0,0,0,0,0,0,0,0,0,0,0,0,0,0,0,0,0,0,0,0,0,0,0,0,0,-1.5138,-1.5138,0,-1.5159,-1.5159,-1.5159,-1.5115,-1.5114,-1.5112,-1.5111,-1.5133,-1.5135,-1.5137,0,0,0,0,0,0,0,0,0,0,0,0,0,-1.506,-1.5061,-1.5138,-1.5138,-1.5138,-1.5159,-1.5159,-1.5159,-1.5116,-1.5114,-1.5112,-1.511,-1.5132,-1.5135,-1.5137,0,0,0,0,0,0,0,0,0,0,0,0,0,-1.5088,-1.5062,-1.5137,-1.5119,-1.5117,-1.5159,-1.5159,-1.5159,-1.5116,-1.5114,-1.5112,-1.511,-1.5132,-1.5134,-1.5137,-1.5198,0,0,-1.5146,-1.5147,0,0,0,0,0,0,0,0,-1.5087,-1.5091,-1.5121,-1.512,-1.5119,-1.5132,-1.5139,-1.5172,-1.5116,-1.5116,-1.5111,-1.5109,-1.5135,-1.5137,-1.5146,-1.5199,-1.52,-1.5146,-1.5148,-1.5149,-1.515,0,0,0,0,0,0,0,-1.5085,-1.509,-1.5146,-1.5122,-1.512,-1.5109,-1.5111,-1.5145,-1.5137,-1.5116,-1.5113,-1.5116,-1.5133,-1.5143,-1.5146,-1.52,-1.5146,-1.5149,-1.5151,-1.5152,-1.5305,-1.5307,0,0,0,0,0,0,-1.5085,-1.5089,-1.5145,-1.5146,-1.5097,-1.5112,-1.5114,-1.513,-1.5137,-1.5136,-1.5118,-1.5114,-1.5139,-1.5143,-1.5146,-1.5219,-1.5149,-1.5152,-1.5154,-1.5302,-1.5305,-1.5308,0,0,0,0,0,0,-1.5084,-1.5091,-1.5144,-1.5117,-1.5123,-1.5116,-1.5134,-1.5131,-1.5141,-1.5138,-1.5136,-1.5129,-1.5138,-1.5142,-1.5185,-1.5219,-1.5153,-1.5156,-1.5299,-1.5303,-1.5306,-1.5363,0,0,0,0,0,0,-1.5082,-1.509,-1.5113,-1.5118,-1.5124,-1.5183,-1.5136,-1.5133,-1.5146,-1.5141,-1.5148,-1.5147,-1.5136,-1.5181,-1.5188,-1.5222,-1.5158,-1.5296,-1.5301,-1.5305,-1.5358,-1.5368,-1.5376,0,0,0,0,0,-1.5079,-1.5128,-1.5115,-1.5122,-1.5153,-1.5185,-1.5189,-1.5175,-1.5149,-1.5172,-1.517,-1.5147,-1.5214,-1.5186,-1.5194,-1.5228,-1.5294,-1.53,-1.5305,-1.5354,-1.5366,-1.5376,0,0,0,0,0,0,-1.5128,-1.5129,-1.5114,-1.5166,-1.5176,-1.5178,-1.5207,-1.5188,-1.5206,-1.5201,-1.5183,-1.5185,-1.5232,-1.5234,-1.5203,-1.5287,-1.525,-1.5257,-1.5284,-1.5296,-1.5305,-1.5304,-1.5161,0,0,0,0,0,-1.5145,-1.5171,-1.517,-1.5216,-1.5222,-1.5214,-1.5227,-1.5215,-1.5225,-1.5229,-1.523,-1.5241,-1.5264,-1.528,-1.5301,-1.5358,-1.5359,-1.5385,-1.5394,-1.5402,-1.5408,-1.5439,-1.5451,-1.5325,-1.5325,-1.5325,0,0,-1.5181,-1.5184,-1.5202,-1.5226,-1.5233,-1.5261,-1.5218,-1.5248,-1.5269,-1.5234,-1.5275,-1.5276,-1.5286,-1.5337,-1.5359,-1.534,-1.5443,-1.5408,-1.5414,-1.5417,-1.5446,-1.5458,-1.5469,-1.5328,-1.5328,-1.5327,0,0,-1.526,-1.5264,-1.5304,-1.5311,-1.5321,-1.5315,-1.5325,-1.5329,-1.5329,-1.537,-1.5344,-1.5368,-1.5408,-1.5417,-1.5426,-1.5508,-1.5488,-1.5515,-1.5564,-1.5594,-1.5604,-1.5613,-1.5643,-1.5654,-1.5522,-1.5522,-1.5522,0,-1.5303,-1.5343,-1.5327,-1.536,-1.5372,-1.534,-1.5381,-1.5388,-1.5405,-1.5414,-1.5392,-1.5442,-1.5447,-1.5499,-1.5519,-1.5528,-1.5539,-1.5515,-1.5604,-1.5613,-1.5621,-1.565,-1.5661,-1.5525,-1.5525,-1.5525,-1.5524,0,-1.5396,-1.5425,-1.5455,-1.5472,-1.5487,-1.5524,-1.5513,-1.553,-1.5516,-1.5513,-1.5555,-1.5559,-1.5581,-1.5592,-1.5579,-1.5643,-1.5631,-1.5607,-1.5569,-1.5636,-1.5663,-1.5674,-1.553,-1.5529,-1.5528,-1.5527,0,0,-1.5509,-1.5515,-1.5527,-1.5535,-1.5543,-1.5565,-1.56,-1.5621,-1.5637,-1.5649,-1.5678,-1.5712,-1.569,-1.5701,-1.5689,-1.5715,-1.5781,-1.5688,-1.5688,-1.5707,-1.5853,-1.5872,-1.5885,-1.5767,-1.5769,-1.5771,-1.5852,0,-1.5588,-1.5648,-1.5634,-1.5694,-1.572,-1.5691,-1.5721,-1.573,-1.5727,-1.5749,-1.5745,-1.5771,-1.5739,-1.5745,-1.577,-1.5768,-1.5811,-1.5762,-1.5795,-1.5797,-1.5795,-1.5899,-1.5919,-1.5996,-1.5863,-1.5864,-1.5866,0,-1.5689,-1.5705,-1.5768,-1.5772,-1.5783,-1.5811,-1.5829,-1.585,-1.5859,-1.5855,-1.5868,-1.585,-1.5885,-1.5845,-1.5893,-1.586,-1.5872,-1.5873,-1.5876,-1.588,-1.5837,-1.5907,-1.602,-1.6033,-1.5882,-1.588,-1.5879,0,-1.5767,-1.5804,-1.5846,-1.5853,-1.5859,-1.588,-1.5883,-1.589,-1.5904,-1.5919,-1.5928,-1.5948,-1.5959,-1.5975,-1.5963,-1.5935,-1.6013,-1.5972,-1.6012,-1.6012,-1.6031,-1.603,-1.6149,-1.6036,-1.6036,-1.6036,-1.6036,0,-1.5858,-1.5898,-1.5881,-1.5908,-1.5951,-1.5934,-1.5977,-1.5977,-1.5984,-1.601,-1.5984,-1.6009,-1.5992,-1.6015,-1.6006,-1.6047,-1.6052,-1.605,-1.6048,-1.6054,-1.6054,-1.6063,-1.6058,-1.6039,-1.6038,-1.6038,-1.6037,0,-1.5953,-1.5943,-1.5987,-1.5989,-1.5991,-1.6023,-1.6024,-1.6049,-1.6044,-1.6077,-1.6083,-1.6076,-1.6102,-1.6091,-1.6119,-1.6113,-1.6166,-1.6156,-1.6164,-1.6162,-1.6202,-1.6199,-1.6332,-1.6349,-1.6224,-1.6225,-1.6226,0,-1.6012,-1.6042,-1.6047,-1.6063,-1.6068,-1.6093,-1.6107,-1.6091,-1.6106,-1.6119,-1.6142,-1.6166,-1.6184,-1.6227,-1.6224,-1.6245,-1.6236,-1.6281,-1.6239,-1.6244,-1.6239,-1.6238,-1.6241,-1.629,-1.6292,-1.6293,-1.6294,0,-1.612,-1.6114,-1.6135,-1.6154,-1.6171,-1.6186,-1.6198,-1.6212,-1.6196,-1.6215,-1.6241,-1.6256,-1.6284,-1.6308,-1.6327,-1.633,-1.631,-1.6307,-1.6317,-1.6325,-1.6328,-1.6328,-1.6188,-1.6304,-1.6303,-1.6303,-1.6302,-1.6302,-1.62,-1.6226,-1.6233,-1.6257,-1.6265,-1.6277,-1.63,-1.6298,-1.6319,-1.6341,-1.633,-1.6361,-1.6369,-1.6392,-1.6398,-1.6422,-1.6404,-1.6419,-1.6423,-1.6428,-1.6434,-1.6323,-1.6425,-1.6425,-1.6425,-1.6424,-1.6424,0,-1.6308,-1.6311,-1.6333,-1.6351,-1.637,-1.6349,-1.6361,-1.6379,-1.6406,-1.6415,-1.6434,-1.6464,-1.6488,-1.6486,-1.6508,-1.6527,-1.6519,-1.6534,-1.6533,-1.6534,-1.6448,-1.6437,-1.6541,-1.654,-1.654,-1.654,-1.654,-1.654,-1.6366,-1.6408,-1.6403,-1.6449,-1.6451,-1.6482,-1.6491,-1.6502,-1.6509,-1.6544,-1.6564,-1.6562,-1.6567,-1.6589,-1.6609,-1.6608,-1.6618,-1.6637,-1.6633,-1.6552,-1.654,-1.6529,-1.652,-1.6639,-1.6639,-1.6717,-1.6718,-1.6719]},{"header":{"parameterUnit":"m.s-1","parameterCategory":1,"la1":30.2991,"la2":30.254,"lo1":-89.0895,"lo2":-89.0444,"dy":0.0017,"dx":0.0017,"nx":28,"ny":28,"refTime":"2025-01-27T09:00:00:Z","depth":0,"parameterNumber":3,"parameterNumberName":"V-component_of_WINDS"},"data":[0,0,0,0,0,0,0,0,0,0,0,0,0,0,0,0,0,0,0,0,0,0,0,0,0,0,0,0,0,0,0,0,0,0,0,0,0,0,0,0,0,0,0,0,0,0,0,0,0,0,0,0,0,0,0,0,0,0,-2.4315,-2.4315,0,-2.4335,-2.4335,-2.4335,-2.4309,-2.4308,-2.4307,-2.4306,-2.4324,-2.4326,-2.4327,0,0,0,0,0,0,0,0,0,0,0,0,0,-2.4251,-2.4253,-2.4315,-2.4315,-2.4316,-2.4335,-2.4335,-2.4335,-2.4309,-2.4308,-2.4307,-2.4306,-2.4324,-2.4326,-2.4327,0,0,0,0,0,0,0,0,0,0,0,0,0,-2.4276,-2.4253,-2.4315,-2.4305,-2.4304,-2.4335,-2.4335,-2.4336,-2.4309,-2.4308,-2.4307,-2.4305,-2.4323,-2.4325,-2.4327,-2.4368,0,0,-2.4334,-2.4335,0,0,0,0,0,0,0,0,-2.4275,-2.4278,-2.4306,-2.4306,-2.4305,-2.4318,-2.4319,-2.4347,-2.431,-2.4307,-2.4306,-2.4305,-2.4323,-2.4325,-2.4332,-2.4369,-2.437,-2.4334,-2.4335,-2.4336,-2.4337,0,0,0,0,0,0,0,-2.4273,-2.4277,-2.4323,-2.4306,-2.4306,-2.4298,-2.43,-2.4324,-2.4323,-2.4307,-2.4306,-2.4308,-2.4323,-2.433,-2.4332,-2.437,-2.4334,-2.4336,-2.4337,-2.4338,-2.4442,-2.4443,0,0,0,0,0,0,-2.4273,-2.4276,-2.4322,-2.4323,-2.4286,-2.4301,-2.4303,-2.4315,-2.4323,-2.4322,-2.431,-2.4307,-2.4327,-2.433,-2.4333,-2.4382,-2.4336,-2.4338,-2.4339,-2.444,-2.4442,-2.4444,0,0,0,0,0,0,-2.4272,-2.4277,-2.4321,-2.4299,-2.4304,-2.4303,-2.4317,-2.4316,-2.4324,-2.4324,-2.4324,-2.4318,-2.4326,-2.433,-2.436,-2.4382,-2.4339,-2.4341,-2.4439,-2.4441,-2.4443,-2.448,0,0,0,0,0,0,-2.427,-2.4277,-2.4293,-2.43,-2.4306,-2.4349,-2.4319,-2.4318,-2.4328,-2.4325,-2.4332,-2.4332,-2.4325,-2.4357,-2.4362,-2.4384,-2.4342,-2.4437,-2.444,-2.4442,-2.4476,-2.4483,-2.4488,0,0,0,0,0,-2.4268,-2.4302,-2.4294,-2.43,-2.4326,-2.435,-2.4354,-2.4347,-2.433,-2.4346,-2.4346,-2.4331,-2.4378,-2.436,-2.4366,-2.4389,-2.4435,-2.4439,-2.4442,-2.4474,-2.4482,-2.4488,0,0,0,0,0,0,-2.4297,-2.4303,-2.4294,-2.4332,-2.4341,-2.4346,-2.4366,-2.4355,-2.4369,-2.4365,-2.4355,-2.4357,-2.4389,-2.4391,-2.4371,-2.4428,-2.4404,-2.4409,-2.4426,-2.4433,-2.4439,-2.4438,-2.4344,0,0,0,0,0,-2.4308,-2.4329,-2.4332,-2.4365,-2.437,-2.4367,-2.4378,-2.4371,-2.438,-2.4384,-2.4386,-2.4394,-2.4411,-2.4422,-2.4437,-2.4476,-2.4477,-2.4494,-2.45,-2.4505,-2.451,-2.453,-2.4538,-2.4455,-2.4455,-2.4455,0,0,-2.4331,-2.4337,-2.435,-2.4371,-2.4377,-2.4398,-2.4371,-2.4393,-2.4408,-2.4387,-2.4416,-2.4418,-2.4426,-2.4461,-2.4476,-2.4464,-2.4533,-2.451,-2.4514,-2.4515,-2.4535,-2.4543,-2.455,-2.4458,-2.4457,-2.4457,0,0,-2.4384,-2.439,-2.4418,-2.4425,-2.4435,-2.4433,-2.444,-2.4447,-2.4447,-2.4476,-2.4461,-2.4477,-2.4506,-2.4513,-2.452,-2.4575,-2.4562,-2.458,-2.4611,-2.4632,-2.4638,-2.4644,-2.4664,-2.4671,-2.4584,-2.4584,-2.4584,0,-2.4411,-2.4442,-2.4434,-2.4458,-2.4467,-2.4449,-2.4478,-2.4484,-2.4499,-2.4505,-2.4491,-2.4527,-2.4532,-2.4568,-2.4581,-2.4587,-2.4595,-2.4579,-2.4638,-2.4644,-2.4649,-2.4668,-2.4675,-2.4586,-2.4586,-2.4586,-2.4586,0,-2.4474,-2.4496,-2.4517,-2.4533,-2.4545,-2.4571,-2.4566,-2.4578,-2.4571,-2.457,-2.4599,-2.4604,-2.462,-2.4628,-2.462,-2.4663,-2.4655,-2.464,-2.4615,-2.4659,-2.4677,-2.4684,-2.4589,-2.4589,-2.4588,-2.4587,0,0,-2.4547,-2.4557,-2.4566,-2.4572,-2.4582,-2.4598,-2.4623,-2.4639,-2.465,-2.466,-2.4681,-2.4705,-2.4691,-2.4699,-2.4692,-2.471,-2.4753,-2.4692,-2.4693,-2.4704,-2.4801,-2.4813,-2.4821,-2.4745,-2.4746,-2.4747,-2.48,0,-2.46,-2.4644,-2.4637,-2.4679,-2.4699,-2.4682,-2.4703,-2.4711,-2.4711,-2.4727,-2.4726,-2.4744,-2.4723,-2.4728,-2.4745,-2.4745,-2.4773,-2.4741,-2.4763,-2.4764,-2.4763,-2.4831,-2.4844,-2.4894,-2.4807,-2.4808,-2.4809,0,-2.4668,-2.4681,-2.4726,-2.4732,-2.474,-2.476,-2.4774,-2.479,-2.4798,-2.4796,-2.4806,-2.4795,-2.4819,-2.4793,-2.4826,-2.4804,-2.4813,-2.4814,-2.4816,-2.4818,-2.479,-2.4836,-2.4909,-2.4917,-2.4819,-2.4819,-2.4818,0,-2.4717,-2.4746,-2.4777,-2.4783,-2.4791,-2.4805,-2.4809,-2.4816,-2.4826,-2.4838,-2.4845,-2.4859,-2.4867,-2.4878,-2.4872,-2.4853,-2.4905,-2.4879,-2.4905,-2.4905,-2.4917,-2.4917,-2.4994,-2.4921,-2.4921,-2.4921,-2.4921,0,-2.4777,-2.4805,-2.4799,-2.4818,-2.4848,-2.484,-2.487,-2.4871,-2.4878,-2.4896,-2.4881,-2.4898,-2.4888,-2.4905,-2.4899,-2.4927,-2.4931,-2.493,-2.4929,-2.4932,-2.4932,-2.4938,-2.4935,-2.4923,-2.4923,-2.4922,-2.4922,0,-2.4838,-2.4835,-2.4867,-2.4872,-2.4874,-2.4896,-2.49,-2.4918,-2.4916,-2.4939,-2.4944,-2.4941,-2.4959,-2.4954,-2.4973,-2.497,-2.5005,-2.4999,-2.5003,-2.5002,-2.5028,-2.5026,-2.5113,-2.5124,-2.5043,-2.5044,-2.5045,0,-2.4877,-2.4898,-2.4906,-2.4918,-2.4923,-2.4942,-2.4952,-2.4944,-2.4955,-2.4966,-2.4982,-2.4999,-2.5013,-2.5043,-2.5042,-2.5056,-2.5051,-2.508,-2.5053,-2.5056,-2.5052,-2.5051,-2.5053,-2.5086,-2.5087,-2.5088,-2.5088,0,-2.4947,-2.4944,-2.4961,-2.4977,-2.499,-2.5002,-2.5012,-2.5022,-2.5014,-2.5028,-2.5047,-2.5057,-2.5077,-2.5095,-2.5108,-2.5111,-2.5099,-2.5097,-2.5103,-2.5108,-2.511,-2.511,-2.5019,-2.5095,-2.5094,-2.5094,-2.5093,-2.5093,-2.4999,-2.5017,-2.5025,-2.5044,-2.5051,-2.5061,-2.5077,-2.5078,-2.5094,-2.511,-2.5104,-2.5126,-2.5133,-2.515,-2.5154,-2.5171,-2.5159,-2.5169,-2.5172,-2.5175,-2.5178,-2.5106,-2.5173,-2.5173,-2.5173,-2.5172,-2.5172,0,-2.5068,-2.5073,-2.509,-2.5105,-2.512,-2.5107,-2.5118,-2.513,-2.515,-2.5158,-2.5172,-2.5193,-2.521,-2.521,-2.5226,-2.5239,-2.5233,-2.5243,-2.5242,-2.5243,-2.5187,-2.518,-2.5247,-2.5247,-2.5247,-2.5247,-2.5247,-2.5247,-2.5107,-2.5137,-2.5135,-2.5169,-2.5172,-2.5195,-2.5202,-2.5211,-2.5217,-2.5242,-2.5256,-2.5256,-2.5261,-2.5277,-2.5291,-2.5291,-2.5297,-2.5309,-2.5307,-2.5255,-2.5247,-2.524,-2.5234,-2.5311,-2.5311,-2.5362,-2.5362,-2.5362]}]]